[[[{"header":{"parameterUnit":"kt","parameterCategory":2,"dx":1,"dy":1,"la1":30.253999710083008,"la2":30.299108505249023,"lo1":-89.0895004272461,"lo2":-89.04439544677734,"nx":28,"ny":28,"refTime":"2022-10-23T21:00:00:Z","depth":"0","parameterNumber":2,"parameterNumberName":"U-component_of_CURRENTS"},"data":[-0.1313,-0.14,-0.1476,-0.1577,-0.1691,-0.1722,-0.1742,-0.1671,-0.1617,-0.1439,-0.1323,-0.1285,-0.1248,-0.1262,-0.1181,-0.1161,-0.1189,-0.1135,-0.1243,-0.1353,-0.1392,-0.1429,-0.1393,-0.1063,-0.1063,-0.0989,-0.0988,-0.0988,-0.1352,-0.1446,-0.1591,-0.1817,-0.1906,-0.2051,-0.2149,-0.2098,-0.2022,-0.2006,-0.1952,-0.1794,-0.1638,-0.1615,-0.1465,-0.1401,-0.1421,-0.1411,-0.142,-0.142,-0.1585,-0.1542,-0.1239,-0.1239,-0.1239,-0.1239,-0.1239,-0.1239,-0.1455,-0.1533,-0.1749,-0.1939,-0.2107,-0.2226,-0.2249,-0.2324,-0.2327,-0.2265,-0.2384,-0.228,-0.219,-0.2033,-0.2001,-0.1846,-0.1972,-0.1779,-0.1829,-0.1874,-0.1805,-0.197,-0.1803,-0.1805,-0.1807,-0.1809,-0.181,0,-0.1567,-0.1674,-0.1862,-0.2084,-0.2232,-0.2393,-0.251,-0.252,-0.2618,-0.2618,-0.2618,-0.2614,-0.2567,-0.2408,-0.2315,-0.2268,-0.2263,-0.2259,-0.2243,-0.2017,-0.1989,-0.1909,-0.2171,-0.2098,-0.2102,-0.2105,-0.2107,-0.2108,-0.1666,-0.1766,-0.2112,-0.2227,-0.2357,-0.2513,-0.259,-0.2718,-0.2731,-0.2794,-0.2769,-0.2794,-0.2765,-0.27,-0.2622,-0.2537,-0.2569,-0.2355,-0.2357,-0.2285,-0.227,-0.2296,-0.2262,-0.2151,-0.2146,-0.2141,-0.2138,0,-0.1705,-0.1922,-0.2133,-0.2425,-0.2506,-0.2594,-0.2751,-0.2784,-0.2829,-0.2832,-0.2831,-0.289,-0.2871,-0.2882,-0.2851,-0.2811,-0.2681,-0.2712,-0.2526,-0.2451,-0.2289,-0.2313,-0.2277,-0.2229,-0.2566,-0.2563,-0.2561,0,-0.1851,-0.1972,-0.2291,-0.238,-0.2535,-0.2687,-0.2765,-0.2831,-0.2876,-0.2889,-0.2939,-0.2935,-0.2963,-0.295,-0.2914,-0.2834,-0.2892,-0.2775,-0.2718,-0.2579,-0.2554,-0.2465,-0.2476,-0.2893,-0.2894,-0.2895,-0.2895,0,-0.1872,-0.2131,-0.2312,-0.2388,-0.2627,-0.2697,-0.2779,-0.2858,-0.289,-0.2923,-0.2906,-0.2979,-0.2959,-0.2961,-0.291,-0.2901,-0.2883,-0.2853,-0.2733,-0.2721,-0.2538,-0.2506,-0.2528,-0.2896,-0.2896,-0.2896,-0.2896,0,-0.1958,-0.2137,-0.232,-0.2561,-0.2597,-0.2655,-0.2778,-0.2829,-0.2883,-0.288,-0.2929,-0.2894,-0.2971,-0.2918,-0.2943,-0.2917,-0.287,-0.2833,-0.2828,-0.2687,-0.2571,-0.238,-0.2407,-0.2358,-0.2698,-0.2697,-0.2696,0,-0.1984,-0.2186,-0.229,-0.2431,-0.254,-0.2605,-0.2666,-0.2736,-0.2754,-0.2777,-0.2819,-0.281,-0.2813,-0.2786,-0.285,-0.2771,-0.2819,-0.2814,-0.2669,-0.2665,-0.2583,-0.2656,-0.249,-0.2407,-0.2688,-0.2688,-0.2689,0,-0.1979,-0.2234,-0.2232,-0.2338,-0.2441,-0.2483,-0.2557,-0.2638,-0.2672,-0.268,-0.273,-0.2763,-0.2733,-0.273,-0.2703,-0.2748,-0.2794,-0.2651,-0.2648,-0.2637,-0.276,-0.2653,-0.2647,-0.2751,-0.2753,-0.2755,-0.2682,0,-0.2148,-0.2225,-0.225,-0.2352,-0.2393,-0.2432,-0.2482,-0.25,-0.2502,-0.2521,-0.2552,-0.2523,-0.2526,-0.2528,-0.25,-0.2584,-0.2501,-0.2464,-0.245,-0.2524,-0.2471,-0.2478,-0.2363,-0.236,-0.2358,-0.2356,0,0,-0.211,-0.2204,-0.2235,-0.23,-0.2346,-0.2336,-0.2392,-0.24,-0.24,-0.2431,-0.2384,-0.2365,-0.2341,-0.2413,-0.2442,-0.2391,-0.2343,-0.24,-0.247,-0.2483,-0.2495,-0.2452,-0.246,-0.2352,-0.2351,-0.235,-0.235,0,-0.217,-0.2197,-0.2235,-0.2269,-0.2312,-0.2329,-0.2337,-0.2353,-0.2368,-0.2364,-0.2341,-0.2349,-0.2276,-0.2316,-0.2313,-0.2354,-0.2285,-0.2309,-0.2439,-0.245,-0.2466,-0.248,-0.2441,-0.2451,-0.2344,-0.2345,-0.2345,0,-0.218,-0.2237,-0.2241,-0.2296,-0.2301,-0.2337,-0.2319,-0.233,-0.2367,-0.2296,-0.2312,-0.2265,-0.2226,-0.2235,-0.2227,-0.2218,-0.2248,-0.2222,-0.2232,-0.2255,-0.2263,-0.2281,-0.2297,-0.2098,-0.2098,-0.2098,0,0,-0.2218,-0.2257,-0.2292,-0.2303,-0.2316,-0.2318,-0.2317,-0.2325,-0.2317,-0.2308,-0.2281,-0.2251,-0.2229,-0.2228,-0.2181,-0.2179,-0.2151,-0.2199,-0.221,-0.222,-0.2249,-0.226,-0.2277,-0.2097,-0.2097,-0.2097,0,0,-0.2222,-0.2289,-0.2292,-0.2318,-0.2329,-0.2338,-0.2333,-0.2332,-0.2308,-0.2305,-0.2269,-0.2259,-0.224,-0.2202,-0.22,-0.2206,-0.2149,-0.2148,-0.2265,-0.2278,-0.2289,-0.2341,-0.2174,0,0,0,0,0,-0.2273,-0.2286,-0.2289,-0.2296,-0.2319,-0.2335,-0.2332,-0.2335,-0.233,-0.2329,-0.2303,-0.2277,-0.2209,-0.2206,-0.2189,-0.2234,-0.2089,-0.209,-0.2092,-0.2237,-0.2251,-0.2264,0,0,0,0,0,0,-0.2276,-0.2287,-0.2288,-0.2304,-0.2309,-0.2334,-0.2335,-0.2334,-0.2331,-0.2333,-0.2284,-0.2275,-0.2252,-0.221,-0.2197,-0.2242,-0.2179,-0.209,-0.2091,-0.2092,-0.2242,-0.2254,-0.2264,0,0,0,0,0,-0.2278,-0.2287,-0.2334,-0.2302,-0.2306,-0.2312,-0.2336,-0.2335,-0.2326,-0.2293,-0.2286,-0.2333,-0.2252,-0.2239,-0.2202,-0.225,-0.2188,-0.2183,-0.209,-0.2091,-0.2092,-0.2248,0,0,0,0,0,0,-0.228,-0.2265,-0.2333,-0.2333,-0.2315,-0.231,-0.2314,-0.2336,-0.2284,-0.228,-0.2339,-0.2341,-0.2251,-0.2241,-0.2231,-0.2258,-0.2196,-0.219,-0.2187,-0.2091,-0.2092,-0.2092,0,0,0,0,0,0,-0.226,-0.2265,-0.2333,-0.2349,-0.235,-0.2308,-0.2312,-0.2257,-0.2282,-0.2332,-0.2333,-0.234,-0.2257,-0.2243,-0.2235,-0.2148,-0.2201,-0.2196,-0.2193,-0.2191,-0.2092,-0.2092,0,0,0,0,0,0,-0.2261,-0.2265,-0.2349,-0.235,-0.235,-0.2338,-0.2255,-0.2269,-0.233,-0.2332,-0.2333,-0.2335,-0.2258,-0.2251,-0.2237,-0.2155,-0.215,-0.2201,-0.2198,-0.2195,-0.2194,0,0,0,0,0,0,0,-0.2262,-0.2251,-0.2345,-0.235,-0.235,-0.2329,-0.2328,-0.2327,-0.233,-0.2331,-0.2333,-0.2334,-0.2229,-0.2224,-0.2218,-0.216,0,0,-0.2202,-0.2199,0,0,0,0,0,0,0,0,-0.2248,-0.225,-0.2345,-0.2346,-0.2346,-0.2329,-0.2328,-0.2328,-0.233,-0.2331,-0.2332,-0.2333,-0.2227,-0.2223,-0.2219,0,0,0,0,0,0,0,0,0,0,0,0,0,0,0,-0.2345,-0.2346,0,-0.2329,-0.2328,-0.2328,-0.2331,-0.2331,-0.2332,-0.2333,-0.2226,-0.2223,-0.2219,0,0,0,0,0,0,0,0,0,0,0,0,0,0,0,0,0,0,0,0,0,0,0,0,0,0,0,0,0,0,0,0,0,0,0,0,0,0,0,0,0,0,0,0,0,0,0,0,0,0,0,0,0,0,0,0,0,0,0,0,0,0,0,0,0,0,0,0,0]}],[{"header":{"parameterUnit":"kt","parameterCategory":2,"dx":1,"dy":1,"la1":30.253999710083008,"la2":30.299108505249023,"lo1":-89.0895004272461,"lo2":-89.04439544677734,"nx":28,"ny":28,"refTime":"2022-10-23T21:00:00:Z","depth":"0","parameterNumber":3,"parameterNumberName":"V-component_of_CURRENTS"},"data":[0.0173,0.0,-0.0091,-0.037,-0.0489,-0.0683,-0.0785,-0.0842,-0.0766,-0.0456,-0.0047,0.0341,0.0928,0.1405,0.1721,0.1727,0.1825,0.1776,0.184,0.1686,0.166,0.1636,0.1704,0.1884,0.1885,0.2085,0.2087,0.2088,0.0249,0.0138,-0.0021,-0.0226,-0.0392,-0.0442,-0.0658,-0.075,-0.081,-0.0659,-0.0493,0.0135,0.0555,0.0927,0.1322,0.144,0.1445,0.1481,0.1493,0.1532,0.1287,0.1347,0.1454,0.1454,0.1453,0.1453,0.1453,0.1453,0.0372,0.027,0.0148,-0.0032,-0.0183,-0.0372,-0.0512,-0.0631,-0.0736,-0.0714,-0.0557,-0.0257,0.0192,0.0686,0.0818,0.1099,0.1054,0.1183,0.1206,0.1191,0.1306,0.1033,0.1073,0.1073,0.1072,0.1072,0.1072,0,0.0454,0.0412,0.0299,0.0135,-0.0016,-0.0199,-0.0371,-0.0473,-0.0568,-0.0577,-0.0516,-0.0373,-0.0034,0.0309,0.0623,0.0761,0.0909,0.0874,0.0983,0.115,0.1156,0.1248,0.0954,0.0934,0.0933,0.0932,0.0931,0.0931,0.0568,0.0497,0.0347,0.0252,0.0189,0.0012,-0.0124,-0.0231,-0.0334,-0.0352,-0.0392,-0.0243,-0.0088,0.0208,0.0473,0.0702,0.0813,0.0836,0.0908,0.1017,0.1081,0.1086,0.1145,0.0916,0.0918,0.092,0.0921,0,0.0606,0.0594,0.0455,0.0327,0.0272,0.014,-0.0046,-0.0163,-0.0191,-0.0275,-0.0275,-0.0156,0.0007,0.0212,0.0396,0.0536,0.0752,0.0756,0.0775,0.0812,0.1023,0.106,0.1077,0.1148,0.0818,0.0819,0.082,0,0.0705,0.0604,0.0561,0.0483,0.031,0.0251,0.0079,0.0026,-0.004,-0.0113,0.0006,0.0011,0.0214,0.0322,0.0476,0.0649,0.0601,0.0806,0.0838,0.0873,0.0882,0.0995,0.1038,0.0759,0.076,0.076,0.0761,0,0.078,0.0705,0.0611,0.0558,0.0432,0.0351,0.027,0.0207,0.0141,0.0141,0.0121,0.0205,0.0258,0.0364,0.0569,0.0595,0.0678,0.0728,0.0847,0.0851,0.0893,0.0904,0.0959,0.0761,0.0761,0.0762,0.0762,0,0.0862,0.0825,0.0742,0.0571,0.0534,0.0477,0.0303,0.0275,0.0268,0.0279,0.0327,0.0411,0.0467,0.0585,0.0678,0.069,0.0765,0.0839,0.0839,0.0917,0.099,0.0939,0.0925,0.1041,0.0857,0.0858,0.0859,0,0.0861,0.0836,0.0832,0.072,0.0656,0.0606,0.0554,0.052,0.0528,0.0513,0.0608,0.0625,0.0748,0.0755,0.0801,0.0881,0.0883,0.0916,0.0933,0.0932,0.0965,0.0949,0.0988,0.0936,0.087,0.0869,0.0868,0,0.0859,0.0857,0.0843,0.0763,0.0732,0.0707,0.0686,0.0645,0.0586,0.0694,0.0647,0.0766,0.0811,0.0835,0.0901,0.0925,0.0905,0.0975,0.0977,0.091,0.0886,0.0956,0.0955,0.095,0.0949,0.0948,0.0878,0,0.0786,0.0781,0.0811,0.0784,0.0775,0.077,0.0756,0.0764,0.0772,0.0793,0.0825,0.0927,0.0954,0.0999,0.104,0.1025,0.1027,0.1076,0.1056,0.105,0.1026,0.1018,0.1124,0.1125,0.1126,0.1127,0,0,0.071,0.0741,0.0781,0.0791,0.0757,0.0781,0.0756,0.0794,0.086,0.0851,0.0895,0.0988,0.1045,0.1042,0.1055,0.1113,0.1105,0.1062,0.1074,0.1068,0.1063,0.1037,0.1029,0.1129,0.1129,0.1129,0.113,0,0.0681,0.0704,0.075,0.0749,0.0778,0.0784,0.0787,0.0842,0.0851,0.0901,0.0924,0.0973,0.1057,0.1068,0.1084,0.1124,0.1107,0.1145,0.1074,0.1083,0.1076,0.1069,0.1042,0.1034,0.1132,0.1132,0.1132,0,0.0593,0.0626,0.0652,0.0712,0.0745,0.0748,0.0777,0.0832,0.0822,0.0884,0.0916,0.0974,0.1021,0.1063,0.1085,0.108,0.1101,0.1125,0.1123,0.1086,0.1095,0.1088,0.1081,0.1152,0.1151,0.1151,0,0,0.0559,0.0607,0.0636,0.0705,0.0715,0.0758,0.0799,0.0806,0.0859,0.0882,0.0921,0.0962,0.1001,0.1017,0.1071,0.1123,0.1116,0.1122,0.1121,0.112,0.1084,0.1092,0.1086,0.1149,0.1149,0.1149,0,0,0.0552,0.0593,0.0575,0.0657,0.069,0.0767,0.0818,0.0825,0.0883,0.0874,0.0905,0.0915,0.0961,0.0997,0.0971,0.1036,0.1047,0.1055,0.0985,0.0985,0.0985,0.092,0.0951,0,0,0,0,0,0.0517,0.0584,0.0566,0.0583,0.069,0.0767,0.0785,0.0819,0.0808,0.0836,0.0873,0.0863,0.0984,0.0963,0.0979,0.0962,0.1126,0.113,0.1134,0.106,0.1059,0.1059,0,0,0,0,0,0,0.0523,0.0542,0.0566,0.0639,0.0664,0.0766,0.0751,0.0764,0.0805,0.0803,0.0861,0.0865,0.0884,0.0955,0.097,0.0952,0.0946,0.1128,0.1131,0.1134,0.106,0.1059,0.1059,0,0,0,0,0,0.0529,0.0544,0.0695,0.0641,0.0663,0.0722,0.0748,0.0758,0.0793,0.0839,0.0845,0.081,0.0885,0.0898,0.0964,0.0944,0.0936,0.0941,0.113,0.1133,0.1135,0.106,0,0,0,0,0,0,0.0533,0.057,0.0702,0.0712,0.0607,0.0717,0.0731,0.0753,0.0826,0.0834,0.0789,0.0786,0.0888,0.0897,0.0906,0.0938,0.0927,0.0933,0.0936,0.1132,0.1134,0.1136,0,0,0,0,0,0,0.0562,0.0578,0.0707,0.0662,0.0668,0.0712,0.0724,0.0791,0.0825,0.0772,0.0773,0.0786,0.0851,0.0896,0.0904,0.101,0.0921,0.0926,0.093,0.0932,0.1134,0.1136,0,0,0,0,0,0,0.057,0.0584,0.066,0.0664,0.0669,0.0785,0.0771,0.0867,0.0822,0.0768,0.0814,0.0811,0.0849,0.0858,0.0902,0.1005,0.1008,0.0921,0.0925,0.0927,0.0929,0,0,0,0,0,0,0,0.0577,0.0467,0.0639,0.0666,0.067,0.0801,0.0804,0.0808,0.0821,0.0818,0.0815,0.0812,0.089,0.0896,0.0902,0.1001,0,0,0.092,0.0923,0,0,0,0,0,0,0,0,0.0463,0.0466,0.0639,0.0641,0.0643,0.0802,0.0804,0.0807,0.0821,0.0818,0.0816,0.0813,0.0892,0.0896,0.0901,0,0,0,0,0,0,0,0,0,0,0,0,0,0,0,0.0639,0.0641,0,0.0802,0.0804,0.0806,0.082,0.0818,0.0816,0.0814,0.0893,0.0897,0.0901,0,0,0,0,0,0,0,0,0,0,0,0,0,0,0,0,0,0,0,0,0,0,0,0,0,0,0,0,0,0,0,0,0,0,0,0,0,0,0,0,0,0,0,0,0,0,0,0,0,0,0,0,0,0,0,0,0,0,0,0,0,0,0,0,0,0,0,0,0]}]],[[{"header":{"parameterUnit":"kt","parameterCategory":2,"dx":1,"dy":1,"la1":30.253999710083008,"la2":30.299108505249023,"lo1":-89.0895004272461,"lo2":-89.04439544677734,"nx":28,"ny":28,"refTime":"2022-10-23T21:00:00:Z","depth":"2","parameterNumber":2,"parameterNumberName":"U-component_of_CURRENTS"},"data":[-0.1901,-0.186,-0.1846,-0.1731,-0.1715,-0.1527,-0.1436,-0.1323,-0.1249,-0.1141,-0.1057,-0.1117,-0.119,-0.0916,-0.0901,-0.0774,-0.0947,-0.0744,-0.1258,-0.1289,-0.1325,-0.1458,-0.1408,0,0,0,0,0,-0.1908,-0.1889,-0.1911,-0.1915,-0.1839,-0.1901,-0.183,-0.1717,-0.1629,-0.1649,-0.1626,-0.1426,-0.1294,-0.1314,-0.1125,-0.1114,-0.1127,-0.1094,-0.1089,-0.1132,-0.1171,-0.1108,-0.0746,-0.0744,-0.0743,-0.0741,0,0,-0.192,-0.1926,-0.1957,-0.2003,-0.2011,-0.1985,-0.1915,-0.1949,-0.1936,-0.1922,-0.204,-0.1946,-0.1954,-0.168,-0.1605,-0.1545,-0.1698,-0.1617,-0.1633,-0.1655,-0.1614,-0.1555,-0.1388,-0.139,-0.1393,-0.1395,-0.1397,0,-0.1936,-0.1934,-0.1998,-0.205,-0.2079,-0.2104,-0.2139,-0.2137,-0.2194,-0.2238,-0.228,-0.2283,-0.2247,-0.2065,-0.1974,-0.1917,-0.1985,-0.1883,-0.225,-0.1839,-0.1781,-0.1736,-0.1752,-0.1667,-0.1671,-0.1675,-0.1677,-0.1679,-0.1904,-0.1946,-0.2053,-0.2086,-0.2151,-0.2205,-0.2215,-0.229,-0.2293,-0.2399,-0.24,-0.2442,-0.2428,-0.2373,-0.2292,-0.2206,-0.2318,-0.1987,-0.1972,-0.2265,-0.2218,-0.2218,-0.2218,-0.1726,-0.172,-0.1715,-0.1711,0,-0.1872,-0.1947,-0.2047,-0.2173,-0.2207,-0.225,-0.2325,-0.2325,-0.2399,-0.2425,-0.2438,-0.2523,-0.2514,-0.2522,-0.2501,-0.2456,-0.2405,-0.2366,-0.2141,-0.2071,-0.2238,-0.2234,-0.2238,-0.2234,-0.2231,-0.2228,-0.2226,0,-0.1879,-0.194,-0.2061,-0.2118,-0.2199,-0.229,-0.2338,-0.2398,-0.2445,-0.2461,-0.252,-0.2545,-0.2574,-0.2569,-0.2535,-0.2464,-0.2523,-0.2408,-0.2361,-0.2187,-0.216,-0.2425,-0.2414,-0.2523,-0.2523,-0.2523,-0.2524,0,-0.1851,-0.1981,-0.2074,-0.212,-0.2253,-0.2314,-0.2345,-0.2413,-0.2445,-0.2491,-0.2501,-0.2561,-0.2564,-0.2565,-0.2524,-0.2515,-0.2512,-0.2487,-0.2374,-0.2363,-0.2162,-0.2131,-0.2524,-0.2524,-0.2524,-0.2525,-0.2525,0,-0.1884,-0.1964,-0.207,-0.2215,-0.2232,-0.2271,-0.235,-0.2388,-0.244,-0.2458,-0.2504,-0.2486,-0.2554,-0.2513,-0.254,-0.2516,-0.2479,-0.2453,-0.2449,-0.233,-0.2233,-0.2012,-0.2018,-0.2344,-0.2343,-0.2343,-0.2342,0,-0.1875,-0.1976,-0.2046,-0.2127,-0.2185,-0.2222,-0.2279,-0.2327,-0.2339,-0.2364,-0.2408,-0.2415,-0.2412,-0.2401,-0.2448,-0.2402,-0.2433,-0.2424,-0.2325,-0.2322,-0.2236,-0.2295,-0.2089,-0.2019,-0.2333,-0.2334,-0.2335,0,-0.1864,-0.2004,-0.2001,-0.2065,-0.2112,-0.2119,-0.2188,-0.2231,-0.2261,-0.2276,-0.233,-0.237,-0.2347,-0.2353,-0.2338,-0.2371,-0.2409,-0.2297,-0.2295,-0.2281,-0.2393,-0.2291,-0.2286,-0.2377,-0.238,-0.2382,-0.2327,0,-0.1976,-0.2015,-0.2018,-0.2055,-0.2074,-0.2083,-0.2106,-0.2122,-0.2123,-0.2136,-0.2183,-0.2177,-0.2192,-0.2193,-0.2177,-0.2249,-0.2184,-0.2159,-0.2137,-0.2199,-0.2159,-0.2165,-0.2064,-0.2063,-0.2061,-0.206,0,0,-0.195,-0.1989,-0.1973,-0.2008,-0.203,-0.199,-0.2024,-0.2031,-0.2033,-0.2064,-0.2035,-0.205,-0.204,-0.2109,-0.2134,-0.2099,-0.2064,-0.2092,-0.2156,-0.2167,-0.2177,-0.2144,-0.2152,-0.2057,-0.2056,-0.2056,-0.2055,0,-0.1981,-0.1968,-0.1978,-0.1988,-0.1991,-0.1983,-0.1984,-0.1978,-0.2002,-0.2012,-0.2011,-0.2029,-0.1987,-0.2027,-0.2031,-0.2071,-0.2015,-0.2036,-0.2127,-0.2141,-0.2155,-0.2166,-0.2136,-0.2144,-0.2051,-0.2051,-0.2052,0,-0.1986,-0.1993,-0.1984,-0.1981,-0.1969,-0.1981,-0.1964,-0.1959,-0.1995,-0.1951,-0.1983,-0.1959,-0.1944,-0.1962,-0.1961,-0.1947,-0.1977,-0.1954,-0.1961,-0.1985,-0.1998,-0.2013,-0.2026,-0.1862,-0.1862,-0.1862,0,0,-0.2003,-0.2002,-0.1992,-0.1981,-0.1976,-0.1964,-0.1958,-0.1965,-0.196,-0.196,-0.195,-0.1942,-0.1942,-0.1942,-0.1924,-0.1922,-0.1906,-0.1935,-0.1944,-0.1951,-0.1979,-0.1995,-0.2009,-0.1861,-0.1861,-0.1861,0,0,-0.2003,-0.2,-0.1999,-0.1989,-0.198,-0.1965,-0.1958,-0.1959,-0.1957,-0.1964,-0.1947,-0.1943,-0.1948,-0.1919,-0.1913,-0.1929,-0.1887,-0.1887,-0.1966,-0.1976,-0.1985,-0.2029,-0.1891,0,0,0,0,0,-0.2005,-0.1999,-0.1998,-0.1995,-0.1975,-0.196,-0.1957,-0.1962,-0.1966,-0.1966,-0.1968,-0.1945,-0.1928,-0.1921,-0.191,-0.1939,-0.185,-0.1852,-0.1854,-0.1952,-0.1963,-0.1973,0,0,0,0,0,0,-0.2004,-0.2,-0.1998,-0.1982,-0.1978,-0.196,-0.1971,-0.1971,-0.1968,-0.1971,-0.1948,-0.1944,-0.1934,-0.1924,-0.1915,-0.1944,-0.1894,-0.1851,-0.1852,-0.1854,-0.1956,-0.1965,-0.1973,0,0,0,0,0,-0.2003,-0.2,-0.197,-0.1982,-0.1978,-0.1979,-0.1972,-0.1973,-0.1971,-0.195,-0.1948,-0.1978,-0.1934,-0.1926,-0.1918,-0.195,-0.19,-0.1897,-0.1852,-0.1853,-0.1854,-0.1961,0,0,0,0,0,0,-0.2002,-0.1996,-0.1969,-0.1968,-0.1996,-0.198,-0.1979,-0.1974,-0.195,-0.1949,-0.1978,-0.1981,-0.1933,-0.1927,-0.1921,-0.1955,-0.1905,-0.1902,-0.19,-0.1853,-0.1854,-0.1855,0,0,0,0,0,0,-0.1998,-0.1995,-0.1968,-0.1986,-0.1986,-0.1982,-0.1981,-0.1942,-0.1949,-0.198,-0.1982,-0.1979,-0.1937,-0.1928,-0.1923,-0.1863,-0.1909,-0.1906,-0.1903,-0.1902,-0.1854,-0.1854,0,0,0,0,0,0,-0.1997,-0.1994,-0.1986,-0.1987,-0.1987,-0.1971,-0.1947,-0.1924,-0.1976,-0.198,-0.198,-0.1981,-0.1937,-0.1933,-0.1924,-0.1866,-0.1863,-0.1909,-0.1907,-0.1905,-0.1904,0,0,0,0,0,0,0,-0.1996,-0.2015,-0.1979,-0.1987,-0.1988,-0.1954,-0.1954,-0.1953,-0.1976,-0.1978,-0.1979,-0.1981,-0.1927,-0.1923,-0.192,-0.1868,0,0,-0.1909,-0.1907,0,0,0,0,0,0,0,0,-0.2015,-0.2015,-0.1979,-0.1978,-0.1978,-0.1954,-0.1954,-0.1953,-0.1977,-0.1978,-0.1979,-0.198,-0.1926,-0.1923,-0.192,0,0,0,0,0,0,0,0,0,0,0,0,0,0,0,-0.1978,-0.1978,0,-0.1954,-0.1954,-0.1953,-0.1977,-0.1978,-0.1979,-0.198,-0.1925,-0.1923,-0.1921,0,0,0,0,0,0,0,0,0,0,0,0,0,0,0,0,0,0,0,0,0,0,0,0,0,0,0,0,0,0,0,0,0,0,0,0,0,0,0,0,0,0,0,0,0,0,0,0,0,0,0,0,0,0,0,0,0,0,0,0,0,0,0,0,0,0,0,0,0]}],[{"header":{"parameterUnit":"kt","parameterCategory":2,"dx":1,"dy":1,"la1":30.253999710083008,"la2":30.299108505249023,"lo1":-89.0895004272461,"lo2":-89.04439544677734,"nx":28,"ny":28,"refTime":"2022-10-23T21:00:00:Z","depth":"2","parameterNumber":3,"parameterNumberName":"V-component_of_CURRENTS"},"data":[-0.1528,-0.1582,-0.1555,-0.1587,-0.1521,-0.1504,-0.1482,-0.1366,-0.1193,-0.0959,-0.0707,-0.0393,-0.0057,0.0136,0.031,0.045,0.043,0.0444,0.0438,0.0343,0.0338,0.0465,0.0459,0,0,0,0,0,-0.1417,-0.1408,-0.1404,-0.134,-0.1339,-0.1247,-0.1252,-0.1243,-0.119,-0.0979,-0.0795,-0.0457,-0.012,0.0152,0.0439,0.0581,0.0555,0.0574,0.0518,0.0513,0.0509,0.0509,0.0553,0.0554,0.0554,0.0554,0,0,-0.1194,-0.1216,-0.1151,-0.1123,-0.1094,-0.1097,-0.1139,-0.1121,-0.1113,-0.0973,-0.0828,-0.056,-0.0307,0.0162,0.0338,0.0505,0.0505,0.0526,0.0522,0.0518,0.052,0.0501,0.0566,0.0567,0.0567,0.0567,0.0567,0,-0.1019,-0.0929,-0.0937,-0.0888,-0.0897,-0.0929,-0.0957,-0.0981,-0.0942,-0.0886,-0.0761,-0.0628,-0.0305,-0.0029,0.0266,0.038,0.0417,0.047,0.0451,0.0423,0.0399,0.0437,0.0435,0.0447,0.0446,0.0446,0.0446,0.0446,-0.0767,-0.0789,-0.0711,-0.0704,-0.068,-0.073,-0.0777,-0.0752,-0.0776,-0.0678,-0.0678,-0.0505,-0.0359,-0.0066,0.0165,0.038,0.039,0.0454,0.0469,0.0433,0.0474,0.0472,0.047,0.0441,0.0442,0.0442,0.0443,0,-0.0644,-0.0556,-0.0597,-0.0565,-0.0558,-0.0613,-0.0618,-0.0681,-0.062,-0.0622,-0.0603,-0.0446,-0.0281,-0.0097,0.0089,0.0198,0.0341,0.0403,0.0351,0.0389,0.0461,0.0461,0.0484,0.0486,0.0487,0.0488,0.0489,0,-0.0439,-0.0484,-0.0373,-0.0424,-0.0488,-0.0456,-0.0527,-0.0508,-0.0485,-0.0503,-0.0378,-0.0338,-0.0156,-0.0043,0.0083,0.0245,0.0228,0.0367,0.0412,0.0386,0.0388,0.0385,0.0388,0.0353,0.0353,0.0353,0.0353,0,-0.0289,-0.0269,-0.03,-0.0319,-0.0326,-0.0333,-0.036,-0.0347,-0.0352,-0.0306,-0.0291,-0.0204,-0.0141,-0.0039,0.0127,0.0137,0.0257,0.0297,0.04,0.0404,0.0407,0.0412,0.0352,0.0352,0.0352,0.0352,0.0352,0,-0.0127,-0.0116,-0.0143,-0.0179,-0.0204,-0.0226,-0.0303,-0.0297,-0.026,-0.0217,-0.016,-0.0087,-0.0026,0.005,0.0163,0.0156,0.0233,0.0304,0.0308,0.0364,0.0437,0.0405,0.0408,0.0376,0.0376,0.0376,0.0376,0,-0.0041,-0.0036,0.0008,-0.0066,-0.0119,-0.0107,-0.0119,-0.0113,-0.0085,-0.0077,0.0017,0.0046,0.012,0.0145,0.0189,0.0275,0.0297,0.0289,0.0392,0.0393,0.0405,0.041,0.0385,0.0407,0.0376,0.0376,0.0376,0,0.0004,0.006,0.0049,0.002,0.0008,-0.0031,-0.0013,-0.0037,-0.0057,0.0032,0.003,0.0123,0.0159,0.0193,0.0259,0.0293,0.0301,0.0342,0.0345,0.0318,0.0361,0.0405,0.0409,0.0354,0.0354,0.0354,0.0376,0,0.0052,0.0067,0.0062,0.0058,0.0048,0.0015,0.0022,0.0036,0.0062,0.0085,0.0141,0.023,0.0274,0.0312,0.0348,0.0361,0.038,0.0424,0.0419,0.0421,0.0436,0.0436,0.0457,0.0458,0.0459,0.046,0,0,0.0061,0.0064,0.0095,0.01,0.0072,0.0069,0.0045,0.0071,0.0123,0.0137,0.0183,0.0278,0.0332,0.0362,0.0378,0.0424,0.0443,0.0395,0.0436,0.0433,0.043,0.0443,0.0441,0.0462,0.0462,0.0462,0.0462,0,0.005,0.006,0.0094,0.0083,0.0092,0.0079,0.0075,0.0093,0.0128,0.0171,0.0223,0.0273,0.0346,0.0383,0.0409,0.0435,0.0449,0.0464,0.0407,0.0444,0.0439,0.0436,0.0447,0.0445,0.0465,0.0465,0.0465,0,0.0034,0.006,0.0077,0.0093,0.0088,0.0069,0.0101,0.0115,0.0123,0.0188,0.023,0.0283,0.0345,0.0392,0.0417,0.0422,0.0455,0.0458,0.0456,0.042,0.0457,0.0453,0.045,0.0485,0.0485,0.0484,0,0,0.0037,0.0075,0.0072,0.0088,0.0078,0.0091,0.0102,0.0126,0.016,0.0184,0.0228,0.0289,0.0333,0.0362,0.041,0.0445,0.0456,0.0455,0.0455,0.0453,0.0418,0.0454,0.0451,0.0482,0.0482,0.0482,0,0,0.0031,0.0063,0.0067,0.0089,0.0086,0.0101,0.0113,0.013,0.0181,0.0202,0.0247,0.0263,0.0313,0.0351,0.0324,0.0401,0.0413,0.0419,0.0354,0.0354,0.0353,0.0295,0.0339,0,0,0,0,0,0.0035,0.0054,0.0057,0.0061,0.0091,0.0089,0.0096,0.0133,0.0151,0.0158,0.0221,0.023,0.0361,0.0339,0.0348,0.0343,0.046,0.0464,0.0468,0.0395,0.0394,0.0393,0,0,0,0,0,0,0.0036,0.0039,0.0057,0.0068,0.0075,0.009,0.0122,0.0132,0.0151,0.0158,0.022,0.0231,0.0268,0.0335,0.0343,0.0337,0.0336,0.0462,0.0465,0.0468,0.0394,0.0394,0.0393,0,0,0,0,0,0.0038,0.004,0.0078,0.0069,0.0075,0.012,0.0123,0.0132,0.0154,0.0204,0.0217,0.0182,0.0266,0.0277,0.034,0.0333,0.033,0.0333,0.0464,0.0467,0.0469,0.0394,0,0,0,0,0,0,0.0038,0.0055,0.008,0.0084,0.0078,0.0121,0.0128,0.0131,0.0201,0.0212,0.0168,0.0173,0.0264,0.0273,0.0282,0.033,0.0326,0.0329,0.0331,0.0466,0.0468,0.047,0,0,0,0,0,0,0.0054,0.0058,0.0082,0.0091,0.0096,0.0122,0.0128,0.0156,0.0202,0.0162,0.0167,0.0169,0.0258,0.0271,0.0277,0.0318,0.0322,0.0325,0.0327,0.0328,0.0468,0.0469,0,0,0,0,0,0,0.0057,0.006,0.0091,0.0094,0.0099,0.0145,0.0148,0.0184,0.019,0.016,0.0194,0.0195,0.0255,0.0262,0.0274,0.0312,0.0317,0.0322,0.0324,0.0326,0.0326,0,0,0,0,0,0,0,0.0059,0.0024,0.0055,0.0097,0.0102,0.0117,0.0118,0.012,0.0191,0.0192,0.0193,0.0194,0.0305,0.0308,0.0312,0.0307,0,0,0.0322,0.0323,0,0,0,0,0,0,0,0,0.0023,0.0024,0.0055,0.0056,0.0056,0.0117,0.0118,0.0119,0.0191,0.0192,0.0193,0.0194,0.0306,0.0309,0.0311,0,0,0,0,0,0,0,0,0,0,0,0,0,0,0,0.0055,0.0056,0,0.0117,0.0118,0.0119,0.0191,0.0192,0.0193,0.0194,0.0307,0.0309,0.0311,0,0,0,0,0,0,0,0,0,0,0,0,0,0,0,0,0,0,0,0,0,0,0,0,0,0,0,0,0,0,0,0,0,0,0,0,0,0,0,0,0,0,0,0,0,0,0,0,0,0,0,0,0,0,0,0,0,0,0,0,0,0,0,0,0,0,0,0,0]}]],[[{"header":{"parameterUnit":"kt","parameterCategory":2,"dx":1,"dy":1,"la1":30.253999710083008,"la2":30.299108505249023,"lo1":-89.0895004272461,"lo2":-89.04439544677734,"nx":28,"ny":28,"refTime":"2022-10-23T21:00:00:Z","depth":"4","parameterNumber":2,"parameterNumberName":"U-component_of_CURRENTS"},"data":[-0.0914,-0.0913,-0.09,-0.0861,-0.0843,-0.0914,-0.1012,-0.1157,-0.1184,-0.1385,-0.1364,-0.1493,-0.1463,-0.1593,-0.1454,-0.146,-0.1464,-0.1565,-0.156,-0.165,-0.1667,-0.1682,-0.1558,0,0,0,0,0,-0.0955,-0.0932,-0.0936,-0.0933,-0.0998,-0.1024,-0.1199,-0.1323,-0.154,-0.1531,-0.164,-0.1629,-0.1586,-0.1622,-0.1508,-0.1657,-0.1646,-0.1517,-0.1587,-0.1661,-0.1679,-0.1552,0,0,0,0,0,0,-0.1006,-0.0996,-0.1014,-0.102,-0.1081,-0.1132,-0.1232,-0.1346,-0.1485,-0.1735,-0.1732,-0.1806,-0.1896,-0.1798,-0.1752,-0.1681,-0.1654,-0.1594,-0.1615,-0.1634,-0.152,-0.1456,-0.1366,0,0,0,0,0,-0.1038,-0.1063,-0.1081,-0.1095,-0.1147,-0.1233,-0.1358,-0.1443,-0.1683,-0.185,-0.191,-0.1909,-0.1913,-0.1877,-0.1827,-0.1777,-0.1885,-0.182,-0.1829,-0.1771,-0.1743,-0.1719,-0.1722,-0.1751,-0.1754,-0.1755,-0.1756,0,-0.1072,-0.1085,-0.1139,-0.1151,-0.1177,-0.1282,-0.1377,-0.158,-0.1698,-0.1931,-0.1973,-0.2053,-0.2094,-0.1981,-0.199,-0.193,-0.1878,-0.1869,-0.1807,-0.1772,-0.1745,-0.1742,-0.1739,-0.1771,-0.177,-0.1769,-0.1767,0,-0.1092,-0.1116,-0.1148,-0.1231,-0.1258,-0.1313,-0.1492,-0.1612,-0.1791,-0.1938,-0.1983,-0.211,-0.2112,-0.2109,-0.2124,-0.2023,-0.198,-0.1923,-0.207,-0.2049,-0.1772,-0.1762,-0.1796,-0.1791,-0.1786,-0.1782,-0.1779,0,-0.1113,-0.1143,-0.1174,-0.1192,-0.1271,-0.1352,-0.1502,-0.1607,-0.1791,-0.1902,-0.199,-0.2052,-0.2079,-0.2091,-0.2062,-0.1972,-0.2077,-0.188,-0.1854,-0.1974,-0.1965,-0.1957,-0.1944,-0.2057,-0.2056,-0.2056,-0.2055,0,-0.1115,-0.115,-0.1181,-0.1197,-0.1293,-0.1358,-0.1438,-0.16,-0.1711,-0.1868,-0.1948,-0.2004,-0.204,-0.2039,-0.2004,-0.1986,-0.204,-0.2014,-0.1855,-0.1844,-0.1948,-0.1937,-0.2054,-0.2054,-0.2054,-0.2054,-0.2053,0,-0.1121,-0.1127,-0.1159,-0.1242,-0.1263,-0.1311,-0.1478,-0.1566,-0.1717,-0.1793,-0.1853,-0.1873,-0.1933,-0.1874,-0.1921,-0.1886,-0.1885,-0.1884,-0.1886,-0.1705,-0.1637,-0.1783,-0.1895,-0.1893,-0.1892,-0.189,-0.1889,0,-0.1127,-0.113,-0.1143,-0.1194,-0.121,-0.1284,-0.1377,-0.1467,-0.1552,-0.1657,-0.1685,-0.1759,-0.1707,-0.1746,-0.1763,-0.1787,-0.1819,-0.1765,-0.1794,-0.1795,-0.1618,-0.1679,-0.1768,-0.1868,-0.1871,-0.1873,-0.1874,0,-0.1116,-0.1118,-0.1123,-0.1143,-0.119,-0.1216,-0.1305,-0.1395,-0.1486,-0.1515,-0.1617,-0.1652,-0.1662,-0.1682,-0.1685,-0.1712,-0.1787,-0.1683,-0.1683,-0.171,-0.1855,-0.1676,-0.1672,-0.1758,-0.176,-0.1762,-0.1859,0,-0.1116,-0.1122,-0.1122,-0.1139,-0.1167,-0.1198,-0.1252,-0.1311,-0.1362,-0.1401,-0.1485,-0.1496,-0.1548,-0.156,-0.1559,-0.1636,-0.1623,-0.159,-0.1552,-0.1621,-0.1655,-0.1667,-0.151,-0.1508,-0.1507,-0.1506,0,0,-0.1123,-0.1113,-0.111,-0.1112,-0.1141,-0.1178,-0.1206,-0.1242,-0.1292,-0.1339,-0.1329,-0.1406,-0.1415,-0.1484,-0.1514,-0.1508,-0.1518,-0.1502,-0.1587,-0.1596,-0.1605,-0.164,-0.1653,-0.1505,-0.1504,-0.1504,-0.1504,0,-0.1112,-0.1106,-0.11,-0.1116,-0.1146,-0.1166,-0.1184,-0.1215,-0.125,-0.13,-0.1309,-0.1351,-0.1376,-0.1403,-0.1417,-0.1487,-0.1469,-0.1494,-0.1552,-0.1577,-0.1587,-0.1597,-0.1634,-0.1646,-0.1501,-0.1501,-0.1501,0,-0.1112,-0.1109,-0.1109,-0.1117,-0.113,-0.1152,-0.1158,-0.1187,-0.123,-0.1212,-0.1265,-0.1275,-0.1289,-0.133,-0.1351,-0.1333,-0.1424,-0.1386,-0.1392,-0.1402,-0.1426,-0.1439,-0.145,-0.1304,-0.1303,-0.1303,0,0,-0.1107,-0.1097,-0.1117,-0.1119,-0.1126,-0.115,-0.1164,-0.1183,-0.1203,-0.1213,-0.1227,-0.1248,-0.1272,-0.1288,-0.1299,-0.1331,-0.1335,-0.1362,-0.1371,-0.1379,-0.1393,-0.1419,-0.1432,-0.13,-0.13,-0.13,0,0,-0.111,-0.1111,-0.1121,-0.1113,-0.1141,-0.1152,-0.116,-0.1181,-0.1201,-0.1209,-0.1208,-0.1211,-0.1257,-0.125,-0.1221,-0.1295,-0.1258,-0.1263,-0.1297,-0.1309,-0.1318,-0.1331,-0.119,0,0,0,0,0,-0.1121,-0.111,-0.1119,-0.1121,-0.1125,-0.1147,-0.1149,-0.1165,-0.1178,-0.1188,-0.1206,-0.119,-0.1241,-0.1214,-0.1214,-0.1252,-0.127,-0.1275,-0.128,-0.1332,-0.1345,-0.1355,0,0,0,0,0,0,-0.1122,-0.1122,-0.112,-0.1128,-0.1131,-0.1145,-0.1144,-0.1147,-0.1177,-0.118,-0.1188,-0.1189,-0.1178,-0.1213,-0.1213,-0.125,-0.119,-0.1272,-0.1277,-0.1281,-0.1337,-0.1347,-0.1355,0,0,0,0,0,-0.1123,-0.1123,-0.1123,-0.1129,-0.1131,-0.1155,-0.1144,-0.1147,-0.1169,-0.1167,-0.117,-0.1187,-0.1177,-0.1179,-0.1213,-0.1251,-0.119,-0.119,-0.1275,-0.1279,-0.1282,-0.1341,0,0,0,0,0,0,-0.1124,-0.1115,-0.1124,-0.1126,-0.1138,-0.1155,-0.1156,-0.1146,-0.1154,-0.1158,-0.1164,-0.1165,-0.1176,-0.1178,-0.1179,-0.1254,-0.119,-0.119,-0.119,-0.1278,-0.1281,-0.1283,0,0,0,0,0,0,-0.1116,-0.1116,-0.1125,-0.1136,-0.1139,-0.1155,-0.1156,-0.1155,-0.1154,-0.1148,-0.1151,-0.1165,-0.1183,-0.1177,-0.1178,-0.1174,-0.119,-0.119,-0.119,-0.119,-0.128,-0.1282,0,0,0,0,0,0,-0.1117,-0.1117,-0.1135,-0.1137,-0.114,-0.1159,-0.1154,-0.1158,-0.1162,-0.1147,-0.1165,-0.1166,-0.1183,-0.1184,-0.1177,-0.1172,-0.1173,-0.119,-0.119,-0.119,-0.119,0,0,0,0,0,0,0,-0.1117,-0.1109,-0.1121,-0.1138,-0.114,-0.1149,-0.1148,-0.1148,-0.1162,-0.1163,-0.1164,-0.1165,-0.1189,-0.119,-0.119,-0.1171,0,0,-0.119,-0.119,0,0,0,0,0,0,0,0,-0.111,-0.1109,-0.1121,-0.1122,-0.1123,-0.1149,-0.1149,-0.1148,-0.1163,-0.1163,-0.1164,-0.1165,-0.1189,-0.119,-0.119,0,0,0,0,0,0,0,0,0,0,0,0,0,0,0,-0.1121,-0.1122,0,-0.1149,-0.1149,-0.1148,-0.1163,-0.1163,-0.1164,-0.1165,-0.1189,-0.119,-0.119,0,0,0,0,0,0,0,0,0,0,0,0,0,0,0,0,0,0,0,0,0,0,0,0,0,0,0,0,0,0,0,0,0,0,0,0,0,0,0,0,0,0,0,0,0,0,0,0,0,0,0,0,0,0,0,0,0,0,0,0,0,0,0,0,0,0,0,0,0]}],[{"header":{"parameterUnit":"kt","parameterCategory":2,"dx":1,"dy":1,"la1":30.253999710083008,"la2":30.299108505249023,"lo1":-89.0895004272461,"lo2":-89.04439544677734,"nx":28,"ny":28,"refTime":"2022-10-23T21:00:00:Z","depth":"4","parameterNumber":3,"parameterNumberName":"V-component_of_CURRENTS"},"data":[-0.0859,-0.0942,-0.0998,-0.1079,-0.1128,-0.1186,-0.118,-0.1119,-0.1027,-0.0913,-0.0763,-0.0652,-0.0391,-0.0469,-0.0128,-0.0082,-0.0053,0.0234,0.0236,0.028,0.0278,0.0276,0.0127,0,0,0,0,0,-0.0864,-0.0919,-0.1002,-0.1079,-0.1151,-0.1181,-0.1164,-0.1124,-0.1026,-0.0917,-0.0827,-0.0652,-0.0386,-0.026,-0.012,-0.0066,0.0113,0.0096,0.0126,0.0278,0.0276,0.0132,0,0,0,0,0,0,-0.0869,-0.0919,-0.1001,-0.1066,-0.1134,-0.1154,-0.1138,-0.1063,-0.0995,-0.0815,-0.0771,-0.0551,-0.0415,-0.0188,-0.0043,0.0099,0.0114,0.0129,0.0135,0.0135,0.0,-0.0057,0.0061,0,0,0,0,0,-0.0857,-0.0906,-0.0956,-0.1046,-0.1086,-0.1107,-0.109,-0.1054,-0.0935,-0.0865,-0.0697,-0.054,-0.0361,-0.0166,0.0004,0.0132,0.0208,0.0258,0.0257,0.0161,0.0135,0.013,0.0114,0.0267,0.0267,0.0267,0.0267,0,-0.0845,-0.0878,-0.0965,-0.1003,-0.1028,-0.1033,-0.1026,-0.0941,-0.089,-0.0735,-0.0702,-0.0533,-0.0426,-0.0163,-0.0039,0.0177,0.0164,0.0252,0.0149,0.013,0.0129,0.0112,0.0096,0.0265,0.0265,0.0265,0.0265,0,-0.0842,-0.0873,-0.0924,-0.0951,-0.096,-0.0968,-0.093,-0.0888,-0.0784,-0.0706,-0.0675,-0.0517,-0.0367,-0.0231,-0.0058,-0.0013,0.0114,0.0147,0.0081,0.0085,0.0102,0.0086,0.0262,0.0263,0.0263,0.0264,0.0264,0,-0.0836,-0.0862,-0.0912,-0.0926,-0.0943,-0.0903,-0.087,-0.0808,-0.0709,-0.0656,-0.055,-0.0492,-0.0368,-0.0262,-0.0181,-0.0061,-0.0028,-0.0018,-0.0001,-0.0093,-0.0106,-0.0077,-0.0091,0.002,0.0018,0.0016,0.0015,0,-0.0821,-0.0858,-0.0892,-0.089,-0.0873,-0.0866,-0.0835,-0.0741,-0.0702,-0.0582,-0.0539,-0.0439,-0.04,-0.0305,-0.023,-0.0261,-0.0075,-0.0105,-0.0055,-0.0055,-0.0092,-0.0103,0.0013,0.0013,0.0012,0.0012,0.0011,0,-0.0801,-0.083,-0.0871,-0.0854,-0.0848,-0.0847,-0.0762,-0.0736,-0.0634,-0.0593,-0.0533,-0.05,-0.0428,-0.0454,-0.032,-0.038,-0.0316,-0.0273,-0.0264,-0.0282,-0.0306,-0.0228,-0.0166,-0.0169,-0.0171,-0.0173,-0.0175,0,-0.0765,-0.0813,-0.08,-0.0819,-0.0825,-0.0764,-0.0742,-0.0693,-0.0645,-0.0592,-0.0557,-0.0537,-0.0555,-0.0541,-0.0494,-0.0449,-0.0377,-0.0472,-0.0311,-0.0305,-0.032,-0.0268,-0.0424,-0.0207,-0.0203,-0.02,-0.0198,0,-0.0718,-0.0739,-0.0742,-0.074,-0.0707,-0.0708,-0.069,-0.0648,-0.0608,-0.0609,-0.0564,-0.0589,-0.0559,-0.056,-0.0557,-0.0509,-0.0419,-0.0511,-0.0508,-0.0407,-0.027,-0.0301,-0.0285,-0.0436,-0.0433,-0.0431,-0.022,0,-0.0646,-0.0669,-0.0695,-0.0682,-0.0678,-0.0688,-0.0646,-0.0635,-0.0615,-0.0591,-0.0583,-0.0598,-0.0588,-0.0597,-0.0609,-0.0561,-0.054,-0.0564,-0.0535,-0.0524,-0.0435,-0.0417,-0.0623,-0.0623,-0.0623,-0.0623,0,0,-0.0573,-0.0604,-0.0591,-0.0607,-0.06,-0.0556,-0.0568,-0.0563,-0.0572,-0.0557,-0.0567,-0.0585,-0.0601,-0.0588,-0.0594,-0.062,-0.0575,-0.0595,-0.0549,-0.0541,-0.0533,-0.0447,-0.043,-0.0623,-0.0623,-0.0623,-0.0623,0,-0.0534,-0.0538,-0.0574,-0.0565,-0.0557,-0.0542,-0.054,-0.0538,-0.0533,-0.0559,-0.0553,-0.0555,-0.0606,-0.059,-0.0594,-0.0623,-0.0574,-0.0636,-0.0604,-0.0551,-0.0543,-0.0536,-0.045,-0.0435,-0.0623,-0.0623,-0.0623,0,-0.0454,-0.0456,-0.0474,-0.0484,-0.049,-0.0494,-0.0471,-0.0492,-0.049,-0.0496,-0.0523,-0.0538,-0.0553,-0.0579,-0.0591,-0.0579,-0.0554,-0.0604,-0.0604,-0.0584,-0.0528,-0.052,-0.0513,-0.0598,-0.0598,-0.0597,0,0,-0.0417,-0.0445,-0.0428,-0.0473,-0.0471,-0.0466,-0.0479,-0.0466,-0.0483,-0.0493,-0.0503,-0.0519,-0.0539,-0.0545,-0.0574,-0.0603,-0.0558,-0.06,-0.0601,-0.0602,-0.0582,-0.0527,-0.052,-0.0597,-0.0597,-0.0597,0,0,-0.0403,-0.0398,-0.038,-0.043,-0.0426,-0.0436,-0.0468,-0.0451,-0.048,-0.0481,-0.0483,-0.0488,-0.0519,-0.0528,-0.0517,-0.0546,-0.0543,-0.0547,-0.0532,-0.0534,-0.0535,-0.0502,-0.0494,0,0,0,0,0,-0.0346,-0.0395,-0.0378,-0.0384,-0.0421,-0.044,-0.0447,-0.0446,-0.0433,-0.0449,-0.0465,-0.0453,-0.0517,-0.0509,-0.0518,-0.0511,-0.0586,-0.0588,-0.059,-0.058,-0.0582,-0.0583,0,0,0,0,0,0,-0.0348,-0.0355,-0.0377,-0.0388,-0.0395,-0.044,-0.0418,-0.0419,-0.043,-0.0428,-0.0452,-0.0454,-0.0459,-0.0504,-0.0512,-0.0505,-0.0491,-0.0587,-0.0589,-0.059,-0.0581,-0.0582,-0.0583,0,0,0,0,0,-0.035,-0.0355,-0.0412,-0.0388,-0.0395,-0.04,-0.0416,-0.0417,-0.0431,-0.0442,-0.0444,-0.0425,-0.046,-0.0466,-0.0509,-0.0501,-0.0485,-0.0488,-0.0588,-0.0589,-0.059,-0.0581,0,0,0,0,0,0,-0.0351,-0.0369,-0.0414,-0.0416,-0.0368,-0.0397,-0.0401,-0.0415,-0.0445,-0.0446,-0.0415,-0.0413,-0.0461,-0.0466,-0.0471,-0.0498,-0.0481,-0.0484,-0.0486,-0.0589,-0.059,-0.0591,0,0,0,0,0,0,-0.0365,-0.0371,-0.0415,-0.0389,-0.0389,-0.0395,-0.0399,-0.0437,-0.0445,-0.0418,-0.0416,-0.0414,-0.0445,-0.0466,-0.047,-0.0531,-0.0477,-0.048,-0.0482,-0.0483,-0.059,-0.0591,0,0,0,0,0,0,-0.0368,-0.0373,-0.0389,-0.0389,-0.0389,-0.0419,-0.043,-0.0466,-0.0427,-0.0417,-0.0422,-0.042,-0.0445,-0.045,-0.0469,-0.0529,-0.0531,-0.0477,-0.0479,-0.0481,-0.0482,0,0,0,0,0,0,0,-0.037,-0.0334,-0.0393,-0.0389,-0.0388,-0.0436,-0.0437,-0.0438,-0.0426,-0.0424,-0.0422,-0.0421,-0.046,-0.0463,-0.0466,-0.0527,0,0,-0.0477,-0.0478,0,0,0,0,0,0,0,0,-0.0332,-0.0333,-0.0393,-0.0393,-0.0393,-0.0436,-0.0437,-0.0438,-0.0426,-0.0424,-0.0423,-0.0421,-0.046,-0.0463,-0.0466,0,0,0,0,0,0,0,0,0,0,0,0,0,0,0,-0.0393,-0.0393,0,-0.0436,-0.0437,-0.0438,-0.0426,-0.0424,-0.0423,-0.0422,-0.0461,-0.0463,-0.0466,0,0,0,0,0,0,0,0,0,0,0,0,0,0,0,0,0,0,0,0,0,0,0,0,0,0,0,0,0,0,0,0,0,0,0,0,0,0,0,0,0,0,0,0,0,0,0,0,0,0,0,0,0,0,0,0,0,0,0,0,0,0,0,0,0,0,0,0,0]}]]]